Вернуться в каталог

FENGYUN 1C DEB

АктивенSSO
NORAD 41827·DEBRIS·🇨🇳 China

Запущен May 10, 1999 с Taiyuan Satellite Launch Center

Loading…

Ближайшие Пролёты (ближайшие 24 часа)

TLE

СвежийSource: Space-Track

Эпоха: Sep 12, 2026, 03:29 UTC

1 41827U 99025EYE 26255.14534162  .00002123  00000-0  87548-3 0  9996
2 41827  98.7267 328.5452 0058372 141.1725 219.3671 14.26944879512289

Отслеживайте FENGYUN 1C DEB в реальном времени с AllMySat

Download on the App Store